Flag for Canada Weather past 2 weeks in Grande Prairie, Alberta, Canada

Now
72 °F

Scattered clouds.


Feels Like: 77 °F
Forecast: 54 / 86 °F
Wind: 6 mph from East

Location: Grande Prairie

Current Time: Jul 28, 2014 at 9:35:10 PM

Latest Report: Jul 28, 2014 at 9:00 PM


Visibility: 25 mi

Pressure: 30.12 "Hg

Humidity: 50%

Dew point: 52 °F

Location of Grande PrairieLocation

Historic Weather in Grande Prairie — Graph

°F

Grande Prairie temperature yesterday

Maximum temperature yesterday: 77 °F (at 5:00 PM)
Minimum temperature yesterday: 52 °F (at 5:00 AM)
Average temperature yesterday: 65 °F

Past Weeks' High & Low Weather Summary

 TemperatureHumidityPressure
High93 °F (Jul 15, 5:00 PM)100% (Jul 15, 7:00 AM)30.24 "Hg (Jul 15, 7:00 AM)
Low45 °F (Jul 18, 5:00 AM)20% (Jul 15, 5:00 PM)29.57 "Hg (Jul 19, 5:00 AM)
Average64 °F68%29.92 "Hg
* Reported Jul 13 8:00 PM — Jul 28 8:00 PM, Grande Prairie, Weather by CustomWeather, © 2014

Note: Actual official high and low records may vary slightly from our data, if they occured in-between our weather recording intervals... More about our weather records

Advertising

Grande Prairie weather history for previous 24 hours

 ConditionsComfort  
Time TempWeatherWind HumidityBarometerVisibility
8:00 PM
Jul 28
79 °FScattered clouds.9 mph37%30.11 "Hg25 mi
7:00 PM81 °FPassing clouds.12 mph32%30.12 "Hg25 mi
6:00 PM81 °FPassing clouds.10 mph37%30.13 "Hg25 mi
5:00 PM81 °FPassing clouds.7 mph39%30.14 "Hg25 mi
4:00 PM79 °FPassing clouds.6 mph42%30.15 "Hg25 mi
3:00 PM79 °FPassing clouds.6 mph42%30.16 "Hg25 mi
2:00 PM77 °FPassing clouds.10 mph44%30.18 "Hg25 mi
1:00 PM75 °FPassing clouds.5 mph50%30.19 "Hg25 mi
12:00 PM72 °FPassing clouds.5 mph53%30.20 "Hg25 mi
11:00 AM68 °FScattered clouds.3 mph60%30.22 "Hg25 mi
10:00 AM64 °FScattered clouds.3 mph68%30.23 "Hg25 mi
9:00 AM61 °FScattered clouds.3 mph77%30.23 "Hg25 mi
8:00 AM57 °FScattered clouds.6 mph88%30.24 "Hg25 mi
7:00 AM55 °FScattered clouds.5 mph88%30.23 "Hg25 mi
6:00 AM54 °FPassing clouds.5 mph94%30.22 "Hg25 mi
5:00 AM54 °FPassing clouds.2 mph94%30.21 "Hg25 mi
4:00 AM55 °FPassing clouds.7 mph88%30.20 "Hg25 mi
3:00 AM57 °FPassing clouds.2 mph88%30.18 "Hg25 mi
2:00 AM57 °FPassing clouds.7 mph82%30.21 "Hg25 mi
1:00 AM61 °FPassing clouds.8 mph77%30.19 "Hg25 mi
12:00 AM64 °FPassing clouds.6 mph68%30.19 "Hg25 mi
11:00 PM
Jul 27
66 °FScattered clouds.6 mph73%30.18 "Hg25 mi
10:00 PM68 °FBroken clouds.3 mph64%30.17 "Hg25 mi
9:00 PM72 °FScattered clouds.6 mph50%30.16 "Hg25 mi
Weather by CustomWeather, © 2014

See weather overviewHow to use our weather pages